Regional Weather Roundup
Issued by NWS Albany, NY

Home | Current Version | Previous Version | Text Only | Print | Product List | Glossary On
Versions: 1 2 3 4 5 6 7 8 9 10 11 12 13 14 15 16 17 18 19 20 21 22 23 24 25 26 27 28 29 30 31 32 33 34 35 36 37 38 39 40 41 42 43 44 45 46 47 48 49 50
972
ASUS41 KALY 200610
RWRALY

NEW YORK STATE HOURLY WEATHER ROUNDUP
NATIONAL WEATHER SERVICE ALBANY NY
100 AM EST FRI JAN 20 2017

NOTE: "FAIR" INDICATES FEW OR NO CLOUDS BELOW 12,000 FEET WITH NO
SIGNIFICANT WEATHER AND/OR NO OBSTRUCTIONS TO VISIBILITY.

NYZ032-033-038>043-046>054-057>066-NYZ062>081-082-084-200700-
EAST


CITY           SKY/WX    TMP DP  RH WIND       PRES   REMARKS
ALBANY         CLOUDY    35  31  85 CALM      30.02S
GLENS FALLS    CLOUDY    33  30  88 CALM      30.00F
POUGHKEEPSIE   CLOUDY    38  29  70 NE7       30.01F WCI  33
NEWBURGH       CLOUDY    37  32  81 NE6       30.02S WCI  33
MONTGOMERY     CLOUDY    38  32  79 CALM      30.00S
WHITE PLAINS   MOCLDY    39  29  67 N3        30.02R
ISLIP          CLOUDY    40  32  73 N3        30.03R
NEW YORK CITY  CLOUDY    43  32  65 E8        30.04R
CENTRAL PARK   CLOUDY    42  33  70 E7        30.05R
$$

NYZ005>009-017-018-044>046-055-056-200700-
CENTRAL


CITY           SKY/WX    TMP DP  RH WIND       PRES   REMARKS
FULTON         CLOUDY    34  32  92 CALM      30.00F
SYRACUSE       CLOUDY    34  32  92 SE5       30.00F WCI  30
ROME           CLOUDY    33  33 100 CALM      30.02S FOG
ELMIRA         CLOUDY    35  32  88 CALM      29.97F
BINGHAMTON     CLOUDY    32  29  88 CALM      29.95F
MONTICELLO     CLOUDY    34  30  86 S3        29.99S
$$

NYZ026>034-041>043-087-200700-
NORTH


CITY           SKY/WX    TMP DP  RH WIND       PRES   REMARKS
WATERTOWN      CLOUDY    35  35 100 CALM      30.00S FOG
FORT DRUM      NOT AVBL
OGDENSBURG     MOCLDY    34  34  99 CALM      30.00S FOG
MASSENA        CLOUDY    34  33  96 CALM      30.01F
SARANAC LAKE   CLOUDY    30  28  92 CALM      29.91F FOG
PLATTSBURGH    CLOUDY    33  31  92 CALM      30.00F
$$

NYZ001>004-010>016-019>021-085-200700-
WEST


CITY           SKY/WX    TMP DP  RH WIND       PRES   REMARKS
NIAGARA FALLS  FOG       35  32  88 E3        29.93F VSB 1/2
BUFFALO        DRIZZLE   34  32  92 NE5       29.94F FOG     WCI  30
DUNKIRK        CLOUDY    34  33  96 NE5       29.92F FOG     WCI  30
JAMESTOWN      CLOUDY    34  30  86 S6        29.88F VSB 1   WCI  29
WELLSVILLE     FOG       34  32  92 S7        29.91F VSB 1/4 WCI  28
ROCHESTER      CLOUDY    35  33  92 SE5       29.98F WCI  31
PENN YAN       CLOUDY    33  30  88 CALM      29.97F
$$

             KEY
       WCI = WIND CHILL INDEX
       VSB = VISIBILITY
       HX  = HEAT INDEX
$$




USA.gov is the U.S. government's official web portal to all federal, state and local government web resources and services.